Weather Roundup
Issued by NWS Chicago, IL

Home | Current Version | Previous Version | Text Only | Print | Product List | Glossary Off
Versions: 1 2 3 4 5 6 7 8 9 10 11 12 13 14 15 16 17 18 19 20 21 22 23 24 25 26 27 28 29 30 31 32 33 34 35 36 37 38 39 40 41 42 43 44 45 46 47 48 49 50

000
NZUS59 KLOT 231803
HRRLOT

CHICAGO AREA WEATHER ROUNDUP
NATIONAL WEATHER SERVICE CHICAGO/ROMEOVILLE IL
100 PM CDT SUN APR 23 2017

NOTE: "FAIR" INDICATES FEW OR NO CLOUDS BELOW 12,000 FEET WITH NO
SIGNIFICANT WEATHER AND/OR OBSTRUCTIONS TO VISIBILITY.

* THESE STATIONS ARE NOT UNDER NWS QUALITY CONTROL. THEY ALSO MAY NOT
  REPORT WEATHER SUCH AS PRECIPITATION OR FOG.

ILZ005-006-012>014-019>023-231900-
NORTHEAST ILLINOIS

CITY           SKY/WX    TMP DP  RH WIND       PRES   REMARKS
OHARE          SUNNY     69  24  18 N5        30.08F
6HR MIN TEMP:  41; 6HR MAX TEMP:  70;

MIDWAY         SUNNY     69  29  22 NE6       30.09F
6HR MIN TEMP:  43; 6HR MAX TEMP:  69;

AURORA         SUNNY     68  31  25 CALM      30.09F
6HR MIN TEMP:  34; 6HR MAX TEMP:  68;

LANSING*       SUNNY     65  31  28 N6        30.10F
WAUKEGAN       SUNNY     68  35  29 N9        30.08F
6HR MIN TEMP:  42; 6HR MAX TEMP:  68;

DUPAGE AIRPORT SUNNY     68  30  24 CALM      30.08F
6HR MIN TEMP:  36; 6HR MAX TEMP:  69;

WHEELING       SUNNY     68  31  25 NW8       30.10F
6HR MIN TEMP:  38; 6HR MAX TEMP:  68;

MORRIS*        SUNNY     67  29  24 CALM      30.09F
NORTHERLY ISL    N/A     56  42  59 E7          N/A
$$

WIZ051-052-058>065-066-070>072-231900-
SOUTHEAST WISCONSIN

CITY           SKY/WX    TMP DP  RH WIND       PRES   REMARKS
MILWAUKEE      SUNNY     70  36  28 NW6       30.06F
6HR MIN TEMP:  50; 6HR MAX TEMP:  71;

KENOSHA*       SUNNY     68  34  28 VRB6      30.08F
RACINE*        SUNNY     68  31  25 VRB6      30.09F
WAUKESHA       SUNNY     64  34  32 NW9       30.08F
$$

INZ001>003-010>013-019-020-231900-
NORTHWEST INDIANA

CITY           SKY/WX    TMP DP  RH WIND       PRES   REMARKS
GARY*          NOT AVBL
MICHIGAN CITY* NOT AVBL
RENSSELAER*    NOT AVBL
VALPARAISO     SUNNY     67  28  23 NE9       30.09F
$$

LMZ740>746-231900-
SOUTHERN LAKE MICHIGAN

STATION/POSITION TIME  SKY/WX   TEMP WIND        PRES    VSBY
                                AIR  DIR/SP/G
                 (UTC)          (F)  (DEG/KT/KT) (MB)    (MI)
HARRISON CRIB    1730            57  100/  5/  5   N/A
BURNHAM HARBOR   1800            56   90/  6/  8   N/A
CALUMET HARBOR   1730            54   60/  7/  7 1019.2F
BURNS HARBOR     1740            52   50/  5/  6 1020.3F
MICHIGAN CITY    1740            49   10/  4/  5   N/A
$$

ABBREVIATIONS USED IN REMARKS
   TC - TEMPERATURE IN CELSIUS
  WCI - WIND CHILL INDEX
   HX - HEAT INDEX
  VSB - VISIBILITY
$$




USA.gov is the U.S. government's official web portal to all federal, state and local government web resources and services.